EW9525 Weather Reports


time (UTC)temp
F
wind
direction
speed
knots
gust
knots
rain 1hr
in
rain 24hr
in
rain mn
in
humidity
%
barometer
mb
20260507014528 46 163 1.7 4.3 0.00 0.26 0.16 73 1018.6
20260507013035 48 153 2.6 5.2 0.00 0.26 0.16 72 1018.7
20260507011536 49 160 2.6 4.3 0.00 0.26 0.16 73 1018.8
20260507010028 49 153 2.6 4.3 0.00 0.26 0.16 73 1018.9
20260507004525 48 130 1.7 4.3 0.00 0.26 0.16 73 1019.0
20260507003025 50 149 3.5 7.0 0.00 0.26 0.16 64 1019.0
20260507001529 51 184 1.7 4.3 0.00 0.26 0.16 69 1019.2
20260507000024 50 190 1.7 5.2 0.00 0.26 0.16 68 1019.2
20260506234530 51 125 1.7 7.0 0.00 0.26 0.16 67 1019.4
20260506233025 50 115 2.6 5.2 0.01 0.26 0.16 68 1019.3
20260506231524 50 155 1.7 4.3 0.02 0.26 0.16 69 1019.5
20260506230022 48 105 1.7 4.3 0.02 0.27 0.16 75 1019.5
20260506224527 47 88 2.6 6.1 0.02 0.27 0.16 78 1019.6
20260506223020 47 210 3.5 8.7 0.01 0.26 0.15 72 1020.0
20260506221519 48 260 3.5 8.7 0.00 0.25 0.14 68 1019.8
20260506220019 49 271 5.2 8.7 0.00 0.26 0.14 65 1019.8
20260506214519 52 242 3.5 5.2 0.00 0.26 0.14 58 1019.9
20260506213021 52 184 1.7 5.2 0.00 0.26 0.14 61 1020.2
20260506211517 51 152 0.9 3.5 0.00 0.26 0.14 64 1020.3
20260506210012 49 186 0.0 4.3 0.00 0.26 0.14 65 1020.5
20260506204510 49 124 1.7 3.5 0.01 0.26 0.14 66 1020.7
20260506203009 47 85 1.7 5.2 0.05 0.26 0.14 67 1020.7
20260506201508 46 155 1.7 6.1 0.06 0.26 0.14 79 1021.1
20260506200011 45 214 0.9 1.7 0.06 0.26 0.14 79 1021.2
20260506194508 44 338 2.6 7.0 0.05 0.25 0.13 82 1021.2
20260506193006 46 308 7.0 9.6 0.01 0.21 0.09 78 1021.3
20260506191506 49 79 5.2 9.6 0.00 0.20 0.08 66 1021.1
20260506190004 49 151 4.3 7.8 0.00 0.23 0.08 70 1021.2
20260506184603 48 193 1.7 5.2 0.00 0.23 0.08 72 1021.6
20260506183111 47 191 2.6 5.2 0.00 0.23 0.08 69 1021.7
20260506181601 47 214 1.7 6.1 0.00 0.23 0.08 70 1021.9
20260506180057 47 158 2.6 6.1 0.00 0.28 0.08 74 1021.9
20260506174606 46 165 1.7 5.2 0.00 0.28 0.08 76 1022.0
20260506173055 44 197 2.6 4.3 0.00 0.28 0.08 78 1022.2
20260506171548 44 214 2.6 5.2 0.00 0.28 0.08 79 1022.2
20260506170048 44 220 1.7 5.2 0.00 0.32 0.08 81 1022.2
20260506164549 43 226 2.6 5.2 0.00 0.32 0.08 82 1021.9
20260506163057 44 238 1.7 7.0 0.00 0.32 0.08 82 1021.9
20260506161542 44 110 0.0 1.7 0.00 0.32 0.08 81 1021.8
20260506160040 45 261 0.0 0.0 0.00 0.32 0.08 78 1021.5
20260506154541 44 264 0.0 1.7 0.00 0.32 0.08 81 1021.4
20260506153036 44 299 0.9 2.6 0.00 0.32 0.08 82 1021.0
20260506151540 44 291 0.0 2.6 0.00 0.32 0.08 82 1021.3
20260506150032 44 213 0.0 2.6 0.00 0.32 0.08 85 1021.3
20260506144529 43 281 0.9 4.3 0.00 0.32 0.08 86 1021.4
20260506143027 43 259 0.9 3.5 0.00 0.32 0.08 88 1021.3
20260506141522 42 252 0.9 4.3 0.00 0.32 0.08 89 1021.1
20260506140029 42 253 1.7 4.3 0.00 0.34 0.08 89 1021.0
20260506134519 42 269 0.9 2.6 0.00 0.34 0.08 90 1020.9
20260506133020 42 238 0.0 2.6 0.00 0.34 0.08 91 1020.8
20260506131519 41 223 0.0 1.7 0.00 0.34 0.08 91 1020.7
20260506130014 41 224 0.0 2.6 0.00 0.34 0.08 92 1020.4
20260506124511 40 221 0.0 0.9 0.01 0.34 0.08 93 1020.2
20260506123011 40 221 0.0 0.0 0.02 0.34 0.08 93 1020.0
20260506121508 40 217 0.0 0.9 0.02 0.34 0.08 93 1019.9
20260506120011 40 195 0.0 0.0 0.01 0.33 0.07 93 1019.5
20260506114505 40 195 0.0 0.0 0.02 0.33 0.07 93 1019.3
20260506113004 40 195 0.0 0.0 0.01 0.32 0.06 93 1019.3
20260506111502 40 211 0.0 0.0 0.01 0.32 0.06 93 1019.2
20260506110002 40 190 0.0 0.0 0.01 0.32 0.06 93 1019.0
20260506104608 40 137 0.0 0.0 0.00 0.31 0.05 93 1018.7
20260506103105 40 261 0.0 0.0 0.00 0.31 0.05 93 1018.7
20260506101627 40 257 0.0 0.0 0.00 0.31 0.05 92 1018.6
20260506100058 40 252 0.0 0.0 0.00 0.31 0.05 92 1018.5
20260506094559 40 271 0.0 0.0 0.00 0.31 0.05 92 1018.5
20260506093059 40 271 0.0 0.0 0.00 0.31 0.05 92 1018.5
20260506091553 40 263 0.0 0.0 0.00 0.31 0.05 92 1018.4
20260506090104 40 261 0.0 0.0 0.00 0.31 0.05 92 1018.3
20260506084606 40 270 0.0 0.9 0.00 0.31 0.05 92 1018.4
20260506083053 40 255 0.0 1.7 0.01 0.31 0.05 92 1018.3
20260506081549 40 227 0.9 3.5 0.01 0.31 0.05 92 1018.2
20260506073045 40 138 1.7 3.5 0.01 0.30 0.04 91 1018.0
20260506071541 40 124 0.0 0.0 0.01 0.30 0.04 91 1018.2
20260506061537 40 36 0.0 0.9 0.02 0.28 0.03 91 1018.2
20260506044526 41 302 0.0 0.0 0.02 0.25 0.25 89 1017.3
20260506043026 41 302 0.0 0.0 0.03 0.25 0.25 89 1017.2
20260506041536 41 295 0.0 1.7 0.04 0.24 0.24 87 1017.3
20260506040023 41 295 0.9 3.5 0.05 0.24 0.24 87 1017.2
20260506034532 41 300 0.0 0.9 0.05 0.23 0.23 88 1017.0
20260506033019 42 255 0.0 0.0 0.05 0.22 0.22 88 1017.0
20260506031517 42 252 0.0 0.9 0.03 0.20 0.20 87 1016.6
20260506030016 42 240 0.0 0.0 0.01 0.18 0.18 86 1016.8
20260506024515 42 236 0.0 0.0 0.01 0.18 0.18 87 1016.5
20260506023013 42 242 0.0 0.0 0.01 0.17 0.17 86 1016.2
20260506021511 42 243 0.0 0.9 0.01 0.17 0.17 86 1016.1
20260506020009 42 276 0.0 0.0 0.01 0.17 0.17 86 1015.4